Location: Julian California
(33.0790°N, 116.6010°W)
Time: 21:37:42
(UTC-07:00)

Cosmos 1697 Rocket - Pass Details

Date: 26 March 2019
Orbit: 834 x 842 km, 71.0° (Epoch: 22 April)

Event Time Altitude Azimuth Distance (km) Brightness Sun altitude
Rises 04:12:06 0° 353° (N) 3,387 6.1 -31.2°
Reaches altitude 10° 04:15:02 10° 7° (N) 2,448 5.4 -30.6°
Maximum altitude 04:19:31 24° 60° (ENE) 1,665 4.9 -29.8°
Drops below altitude 10° 04:23:57 10° 113° (ESE) 2,435 5.6 -28.9°
Sets 04:26:51 0° 127° (SE) 3,365 6.2 -28.4°
